RH
34 35 35 36 36 37 37 36 35 35 34 34 31 28 30 29 25 23 25 25 21 20 20 19 17 16 15 13 12 10 10 9 9 9 8 9 10 10 13 16 18 18 17 16 16 16 16 16 14 13 15 14 14 15 16 17 17 14 12 13 13 13 11 12 12 12 14 13 12 12 12 12 12 10 9 14 21 24 32 36 35 37 39 39 40 46 51 50
33 34 35 36 37 37 37 37 36 35 34 35 33 31 33 33 29 25 26 27 23 20 20 20 19 17 16 15 13 12 10 9 9 8 8 9 10 10 10 13 16 17 17 16 16 17 18 18 16 15 15 16 15 17 18 17 17 15 14 14 13 12 11 12 13 13 16 15 13 13 12 13 12 12 11 15 25 28 33 40 39 43 46 45 45 48 55 56
33 33 35 37 37 36 36 37 36 35 35 36 34 33 33 34 33 31 30 29 24 20 20 20 20 19 17 15 15 13 11 11 9 9 8 8 9 9 9 11 12 15 16 16 16 16 17 17 17 17 16 18 17 17 18 16 17 16 15 16 13 11 12 12 13 15 16 15 15 14 13 15 16 16 13 15 26 31 36 41 43 47 49 49 49 49 53 56
34 33 36 37 36 36 36 37 37 36 35 36 35 33 33 35 34 34 34 29 24 21 20 19 20 20 18 17 16 14 14 13 11 10 9 8 8 8 8 9 10 11 14 15 15 16 16 16 18 20 19 21 20 18 18 16 17 16 15 15 12 12 14 14 13 14 15 14 14 14 14 14 17 20 18 17 22 29 34 38 42 49 52 50 51 50 48 49
35 34 36 36 35 36 37 37 38 37 37 36 35 32 32 36 36 35 34 30 25 22 20 19 19 20 20 19 17 16 18 18 15 12 11 10 8 8 8 8 9 10 11 12 14 15 16 15 17 21 21 22 21 19 19 17 17 17 16 14 13 14 16 15 14 14 14 13 13 14 15 13 15 21 22 22 22 27 33 36 40 47 52 51 51 49 45 46
37 36 36 36 36 35 36 38 38 37 37 36 36 33 32 35 36 35 34 32 27 22 20 19 18 20 20 20 18 18 22 21 19 17 14 12 11 10 9 9 9 9 9 10 11 13 15 15 16 20 21 22 21 20 19 18 18 18 17 15 15 16 16 16 15 15 14 13 13 14 14 11 13 18 23 26 25 29 35 38 41 45 50 53 51 47 44 45
38 38 37 37 38 33 34 39 39 37 37 36 35 35 33 34 35 34 33 33 29 23 21 19 18 19 19 21 19 20 24 20 19 20 17 15 13 11 10 9 9 9 8 9 9 10 13 14 15 19 21 21 21 21 19 20 20 19 18 15 16 18 17 17 16 16 15 15 14 13 13 12 13 16 23 28 27 32 38 39 42 44 49 53 50 46 45 46
39 40 38 39 39 34 35 39 38 37 36 35 34 34 34 34 33 32 31 30 28 24 22 20 20 19 19 20 21 26 26 20 19 19 16 16 15 14 12 10 9 8 8 8 8 8 10 12 13 18 21 21 21 21 20 21 21 20 18 16 17 19 18 17 17 17 16 16 16 14 13 13 13 13 20 29 30 34 38 41 43 44 49 51 48 48 50 51
39 40 40 40 39 36 37 38 37 37 36 34 34 34 33 33 32 30 28 27 26 24 22 22 21 21 21 20 25 33 27 19 19 17 17 17 16 16 14 11 9 8 8 7 7 8 9 9 11 15 20 21 21 21 21 21 21 20 19 17 16 18 19 17 17 17 16 17 16 15 14 13 13 11 17 28 31 33 37 41 44 45 49 51 48 49 52 53
37 38 38 38 38 37 38 37 36 35 36 34 34 34 33 32 31 27 25 23 23 22 23 24 23 24 24 25 32 35 25 19 20 18 19 19 16 16 14 12 11 9 8 7 7 7 8 8 9 12 17 19 19 19 20 21 21 20 19 17 16 18 18 17 17 18 17 17 15 14 14 12 13 11 16 26 30 34 36 39 44 45 49 52 49 48 50 50
35 35 36 36 36 36 36 36 35 34 35 35 34 35 33 32 30 25 22 21 20 21 24 26 27 28 27 31 37 32 23 22 22 23 26 25 22 18 15 13 14 13 10 8 8 7 8 8 8 11 14 15 16 17 18 19 20 20 20 18 16 17 18 17 17 18 17 17 15 14 13 11 11 10 14 24 31 36 35 36 44 47 49 51 48 46 48 46
34 32 33 35 35 36 37 36 34 33 34 34 34 33 33 31 27 22 21 20 20 20 24 29 32 31 31 36 35 26 22 23 24 27 30 31 28 21 17 16 16 15 12 10 9 8 9 8 9 11 11 12 14 16 16 17 18 19 19 18 17 17 17 17 17 17 17 17 15 14 13 11 11 10 12 23 29 33 35 35 43 49 51 50 49 48 46 42
35 33 33 34 35 36 36 35 35 34 33 33 33 33 33 29 23 22 21 21 20 21 25 33 35 34 38 37 27 21 21 22 25 29 30 30 29 24 19 16 15 16 14 12 10 10 9 9 10 10 10 10 11 14 16 17 18 19 18 18 18 18 18 17 16 16 17 17 15 14 14 12 11 9 10 22 32 33 33 35 39 47 52 51 50 49 47 42
36 35 34 34 34 35 34 34 34 35 35 34 34 34 31 25 21 20 21 21 21 22 26 34 37 36 40 34 22 20 20 20 23 28 30 28 26 25 20 16 15 16 16 14 12 11 11 10 10 11 10 9 10 12 15 17 18 18 18 18 18 19 20 18 17 16 16 16 14 14 15 13 11 10 10 20 34 34 31 34 36 39 44 45 46 47 46 41
37 36 35 34 35 34 34 32 31 33 34 34 33 31 27 23 21 19 20 22 22 25 28 33 35 36 39 31 20 21 20 20 21 24 29 28 25 24 20 17 16 16 16 16 15 13 14 14 11 11 10 9 10 11 13 15 16 17 18 19 18 18 19 19 18 17 15 15 14 14 15 14 12 12 11 16 28 32 29 31 33 35 38 40 43 45 44 40
38 37 36 35 35 34 32 30 28 31 32 32 31 29 26 23 22 21 21 22 23 26 28 30 32 35 38 30 21 22 21 20 20 22 26 27 26 25 21 19 16 16 16 16 16 15 17 17 14 11 10 10 10 11 13 14 14 14 16 18 18 18 19 19 19 18 16 15 15 15 14 13 12 12 13 15 21 27 26 28 33 37 39 40 44 47 45 43
38 38 37 36 36 35 33 30 29 33 35 34 31 27 24 23 23 25 26 26 26 25 25 28 34 38 33 25 23 24 22 21 20 21 24 26 28 26 23 20 17 15 15 16 17 16 18 18 16 13 10 10 10 11 14 14 14 14 14 16 16 17 18 18 18 18 18 16 16 16 14 13 13 12 13 14 17 22 24 28 34 37 40 40 42 46 48 50
37 39 38 36 37 37 34 31 31 35 38 36 31 26 23 23 28 30 29 29 29 32 33 32 36 39 31 25 25 23 21 21 20 21 22 26 28 27 24 22 19 17 16 17 18 18 19 19 18 15 12 11 11 11 14 14 14 15 14 14 14 14 16 16 17 18 18 18 17 18 16 13 13 14 15 15 16 18 22 32 35 33 39 40 38 41 44 50
36 38 39 38 37 36 32 28 30 34 37 35 29 24 21 24 31 34 35 35 34 35 37 34 33 31 25 25 25 22 21 22 22 22 21 24 27 27 25 23 21 19 19 20 19 18 19 20 19 16 13 12 11 11 12 13 12 14 15 14 14 14 14 15 16 17 17 18 18 19 17 14 13 15 17 19 20 18 21 34 38 33 38 40 37 37 38 44
34 36 39 39 37 35 28 26 30 33 36 35 28 25 23 27 39 45 47 45 39 33 28 27 30 26 21 23 25 24 25 25 25 25 23 22 24 26 25 23 23 21 21 22 21 19 20 22 21 17 14 12 12 12 11 12 12 14 16 16 16 16 15 14 15 16 17 18 18 18 18 15 14 15 17 21 24 22 20 31 41 38 38 41 38 38 40 45
34 35 38 39 37 32 26 26 31 32 36 36 32 31 29 30 41 48 48 43 39 39 32 26 28 27 24 25 26 28 29 27 27 26 26 25 24 25 25 24 23 22 23 23 22 21 22 23 21 17 16 14 13 13 13 13 12 14 17 18 17 17 17 14 15 18 17 18 18 19 19 16 16 18 18 20 22 22 22 30 41 38 36 40 40 41 45 48
34 36 37 37 34 28 25 27 31 34 36 35 33 33 28 29 38 42 42 37 33 38 39 33 29 27 27 27 29 32 32 29 27 26 27 26 24 23 24 25 23 23 25 25 25 24 24 23 21 17 16 15 15 14 14 14 13 14 17 18 17 18 18 15 16 19 18 20 19 20 20 17 20 22 20 21 22 23 25 31 38 35 34 41 42 44 49 49
35 37 36 35 30 25 25 27 32 37 38 36 35 31 25 29 36 36 37 35 28 30 35 35 33 30 29 32 33 33 32 30 28 27 26 26 24 23 23 24 24 24 26 27 27 27 26 23 21 19 18 17 17 15 14 14 13 14 17 18 18 17 18 19 18 19 19 20 20 20 20 20 22 22 20 23 24 24 26 31 37 35 34 40 43 45 49 50
37 37 36 32 27 25 25 29 36 39 41 40 36 32 29 31 34 32 34 34 28 27 28 28 31 30 28 31 34 32 31 29 29 29 28 27 26 24 23 23 24 25 27 28 27 27 26 22 21 20 19 18 17 15 15 14 13 14 17 18 18 16 19 21 20 20 21 21 22 21 21 22 22 21 22 25 26 26 26 31 39 39 36 40 44 46 49 51
38 38 35 30 26 26 26 30 38 41 43 43 37 36 37 36 37 36 36 38 32 27 26 25 26 26 24 28 32 32 30 30 30 31 30 29 27 26 24 23 24 26 28 29 28 27 26 23 21 20 20 17 16 15 14 15 14 15 17 17 17 17 19 22 21 22 23 22 23 22 22 24 22 21 25 29 29 29 27 31 40 41 40 42 46 50 53 57
39 38 34 28 26 28 28 32 40 43 44 43 41 44 46 45 48 45 43 50 44 29 27 27 24 22 22 26 29 31 31 30 29 32 33 32 30 28 26 24 23 25 28 30 30 28 25 24 22 20 20 18 16 15 14 14 15 15 16 16 17 17 19 23 24 23 25 26 25 22 23 25 22 21 27 29 29 28 28 34 42 42 41 45 48 52 56 61
40 39 32 27 27 32 33 33 39 44 45 46 46 48 50 51 51 46 48 60 56 38 31 32 27 23 22 23 27 29 30 28 29 32 33 34 32 30 28 26 24 24 27 32 33 29 26 27 27 23 21 19 17 15 14 14 15 15 15 16 18 18 19 24 27 25 25 26 25 22 22 25 23 23 27 28 28 30 33 40 45 42 41 46 50 53 57 60
42 39 32 27 30 35 35 35 40 46 51 55 53 50 52 52 46 45 59 70 63 48 40 35 31 28 25 25 26 27 24 24 27 31 32 34 33 31 30 27 25 25 27 33 35 31 27 28 31 29 24 22 18 15 14 14 15 15 15 17 19 20 22 27 29 27 24 24 25 23 22 24 24 25 28 28 30 33 36 43 46 42 44 50 51 52 55 57
43 41 34 29 32 37 39 41 45 48 53 55 54 52 51 47 44 52 72 76 63 53 48 40 34 32 30 28 26 24 22 21 24 28 30 33 33 33 32 28 26 27 28 31 34 35 33 27 28 31 28 24 19 16 15 15 15 15 15 17 20 22 26 29 29 28 26 25 27 24 22 24 25 26 28 30 33 33 36 44 45 42 48 54 52 50 52 56
44 43 37 31 34 39 41 43 44 48 54 54 54 52 44 42 49 62 74 72 62 57 51 45 41 36 32 30 27 22 21 21 21 26 29 30 32 35 35 31 28 28 30 32 35 38 37 31 29 32 30 26 22 19 17 15 15 16 16 17 19 24 28 30 30 29 30 33 32 25 23 24 25 26 27 30 33 33 40 49 48 44 49 55 54 52 53 56
48 46 40 34 36 41 41 40 43 48 52 52 54 48 40 45 57 68 71 62 59 61 54 49 47 40 34 32 29 23 21 22 21 26 29 28 31 36 38 34 30 30 32 34 36 38 38 36 32 31 31 29 26 23 19 17 17 18 18 18 20 26 29 29 30 31 36 43 38 27 24 24 25 27 31 34 34 35 43 49 49 47 50 54 56 58 60 59
51 48 42 37 37 42 43 40 43 48 48 49 51 45 45 58 64 68 69 61 63 68 58 53 51 42 37 34 31 26 22 23 23 24 28 28 30 34 37 36 31 32 34 34 36 38 38 37 33 31 32 31 30 27 23 20 19 19 19 21 24 29 31 30 31 35 39 42 35 29 28 26 27 34 40 43 41 43 48 48 47 48 48 52 57 61 64 64
52 50 45 39 39 42 43 40 43 48 50 51 48 45 55 70 65 60 63 64 72 74 63 58 53 45 40 37 35 29 22 24 24 23 25 27 28 32 34 34 31 32 35 36 38 39 39 38 34 33 32 29 30 29 25 22 20 20 21 23 26 29 32 32 33 35 35 34 32 29 28 30 39 47 47 48 48 51 54 52 51 51 48 49 53 55 59 63
56 54 48 41 39 42 42 42 46 52 57 55 48 49 64 72 62 57 63 67 71 72 65 62 57 50 45 39 36 31 24 25 25 24 24 24 26 31 33 33 32 32 34 38 40 39 42 41 36 35 32 29 30 29 28 25 20 20 20 21 25 27 29 32 32 34 33 33 32 30 32 43 57 64 57 51 50 52 56 56 56 55 50 48 51 54 58 62
63 58 51 43 40 41 42 46 50 55 63 59 48 54 69 71 63 64 72 74 72 70 67 65 60 55 51 44 39 35 27 25 27 25 23 22 24 29 32 31 32 33 34 40 42 39 40 40 36 35 33 32 32 29 29 29 25 22 19 21 25 25 26 29 29 30 32 33 32 42 57 64 67 69 63 56 54 53 56 58 58 57 53 51 54 58 61 63
69 62 53 45 40 42 47 54 55 55 62 58 51 57 64 63 64 70 77 77 74 72 70 70 66 61 59 53 47 45 35 26 28 28 24 23 22 24 28 29 30 33 35 40 44 41 40 39 35 36 37 35 33 29 27 30 29 25 22 23 23 21 24 30 30 26 31 37 36 51 75 76 71 73 69 64 61 59 59 59 57 56 53 53 57 61 62 63
72 66 55 46 43 45 53 60 57 56 59 57 59 62 55 54 65 73 76 76 74 72 72 76 74 67 66 60 53 51 41 32 33 33 28 27 24 22 24 26 28 30 34 40 45 44 43 43 38 37 40 37 34 34 31 29 30 30 28 24 22 23 26 35 38 31 33 41 40 52 74 73 70 77 77 73 69 66 63 60 58 56 55 57 60 62 63 62
75 67 55 45 44 49 56 61 58 56 56 57 66 67 53 54 66 71 74 75 73 73 74 78 78 72 71 65 57 54 46 39 38 38 37 35 30 25 24 25 26 28 32 39 46 48 48 50 46 39 42 41 37 39 38 33 32 32 30 24 25 31 32 35 42 37 35 39 38 54 73 69 64 69 72 72 70 68 65 60 58 57 57 60 62 61 61 61
76 66 52 44 46 54 60 64 60 56 57 64 73 68 54 57 65 69 73 73 71 72 74 77 79 79 77 70 63 61 53 47 43 38 40 42 36 31 27 26 25 26 30 37 47 52 51 55 54 45 42 44 40 40 40 36 33 30 31 29 27 31 32 32 37 38 40 40 38 55 73 67 61 63 61 61 60 62 63 59 58 58 59 61 62 61 60 59
73 60 50 52 57 61 64 67 66 61 61 68 73 67 58 59 63 67 70 70 68 70 71 72 76 82 84 77 69 66 60 53 48 41 39 41 41 37 34 31 27 23 28 36 45 52 53 55 58 51 45 47 44 41 38 35 34 31 31 34 29 27 29 31 34 35 41 44 43 58 72 66 59 59 57 58 59 60 62 59 58 60 61 63 62 62 61 58
68 55 56 68 71 70 70 73 73 67 66 70 69 65 60 58 62 66 66 67 67 67 67 68 71 74 80 80 74 69 64 56 52 49 42 39 42 44 40 36 31 25 28 34 38 47 53 56 58 55 51 49 46 43 38 34 34 32 31 33 31 29 29 31 36 35 36 43 43 50 66 68 62 58 55 56 57 59 63 62 60 61 60 60 60 61 61 59
64 56 68 81 79 77 78 78 76 72 72 71 66 63 59 57 63 65 63 65 66 66 65 64 65 68 75 79 74 70 68 58 52 55 51 43 43 47 43 37 36 31 28 31 34 42 50 54 57 58 55 50 46 45 44 38 34 33 33 34 33 33 31 33 42 40 36 40 39 43 61 72 67 60 57 57 56 57 63 63 59 60 59 57 59 60 60 59
64 67 83 92 88 85 82 80 81 78 74 69 62 60 58 59 64 63 59 62 65 66 65 62 62 66 73 77 74 71 69 59 52 53 54 47 45 49 45 41 42 39 32 35 39 43 48 53 57 58 54 52 48 46 44 41 37 37 37 36 36 37 33 33 41 42 38 39 38 50 72 76 69 65 64 67 69 66 67 66 63 62 61 59 60 61 60 58
69 78 92 95 93 92 86 83 85 81 74 68 62 59 58 59 63 61 57 60 64 67 66 62 61 64 69 73 74 72 70 64 57 53 53 52 51 50 46 43 46 46 41 40 42 44 49 54 59 63 63 61 56 52 49 43 40 41 42 39 39 40 35 33 36 39 40 39 40 59 81 81 74 72 68 70 75 76 74 72 70 69 66 63 62 61 59 56
73 86 93 93 93 94 91 88 87 87 80 72 67 64 61 61 61 58 55 57 63 65 62 58 58 62 66 70 73 72 70 66 62 57 55 57 57 53 48 46 48 49 47 46 45 46 53 55 56 65 72 68 62 59 55 46 41 41 42 42 41 38 36 35 36 39 41 41 45 62 80 84 81 77 72 70 74 79 78 75 74 72 70 67 63 61 61 60
84 93 94 94 95 96 96 90 89 91 86 79 75 67 63 65 62 56 56 59 61 58 54 51 52 57 63 67 71 74 73 68 64 60 58 58 57 53 50 49 51 50 50 53 51 47 50 53 53 59 66 62 57 54 52 49 47 43 41 42 41 38 37 37 39 42 41 47 61 67 69 79 85 81 79 79 78 80 79 76 76 75 73 70 68 68 69 70
93 98 97 98 98 98 97 91 88 89 85 81 78 67 63 68 66 60 60 61 58 52 48 47 49 57 63 65 70 75 75 69 63 61 60 59 60 58 53 51 52 51 49 52 54 48 48 51 51 54 59 57 53 51 49 51 53 51 48 47 45 41 39 38 42 45 42 53 74 75 63 71 84 83 81 83 81 81 80 78 79 79 75 73 73 74 75 73
94 97 98 99 99 99 97 90 85 84 81 79 76 68 67 70 68 64 61 57 52 49 48 49 52 57 61 63 66 72 75 72 65 61 62 64 66 67 61 54 53 51 48 51 55 53 54 56 53 52 58 60 58 55 54 55 57 60 60 57 51 46 44 43 46 49 48 52 66 71 67 70 78 81 80 79 79 80 81 81 80 79 76 75 76 76 74 73
95 97 97 98 99 99 98 92 86 83 80 79 76 70 72 74 69 65 61 59 58 56 53 56 58 58 59 62 64 67 72 76 72 66 67 68 68 69 66 59 55 54 52 55 57 53 56 63 59 56 63 66 63 61 61 61 61 65 68 65 60 55 55 56 56 55 54 54 58 65 71 75 77 78 78 77 78 81 82 82 80 78 76 76 76 75 73 71
98 99 98 99 100 100 98 93 87 83 78 77 77 73 72 74 70 65 64 65 68 66 60 60 63 60 60 62 64 63 66 72 76 72 70 70 69 70 69 62 60 60 57 58 59 52 54 64 65 63 69 71 68 69 70 67 65 68 73 71 65 60 59 61 60 57 57 62 66 69 73 80 81 80 79 79 78 79 80 82 81 79 79 78 77 75 72 69
98 99 99 100 100 99 96 90 84 85 82 80 81 75 69 70 70 69 67 65 65 67 64 65 68 67 65 65 65 63 61 64 71 71 70 72 73 73 72 67 66 67 62 60 62 57 57 65 68 68 74 73 69 72 75 71 68 72 76 73 67 64 65 65 63 60 61 68 75 75 74 77 78 78 82 85 82 79 80 82 83 82 81 80 77 75 72 70
98 98 99 100 99 97 96 90 87 90 88 83 81 76 72 74 75 73 72 69 65 65 66 68 71 73 72 70 67 65 60 59 64 66 67 71 71 70 74 74 70 67 65 63 65 64 61 63 67 69 73 73 71 75 77 71 69 75 78 75 72 70 70 69 67 67 67 69 73 73 71 71 71 73 81 88 88 84 83 83 83 83 81 78 75 75 74 72